Location: ?ern� Novina
(50.6762°N, 14.8696°E)
Time: 15:42:28
(UTC+00:00)

Cosmos 2219 Rocket - Pass Details

Date: 03 March 2021
Orbit: 826 x 848 km, 71.0° (Epoch: 13 April)

Event Time Altitude Azimuth Distance (km) Brightness Sun altitude
Rises 19:25:14 0° 207° (SSW) 3,356 5.4 -25.6°
Reaches altitude 10° 19:27:39 10° 207° (SSW) 2,428 4.6 -26.0°
Maximum altitude 19:33:14 89° 116° (ESE) 839 2.0 -26.8°
Drops below altitude 10° 19:38:52 10° 30° (NNE) 2,456 4.6 -27.6°
Sets 19:41:20 0° 30° (NNE) 3,397 5.3 -27.9°
